[[{"header":{"parameterUnit":"m.s-1","parameterCategory":1,"la1":30.2991,"la2":30.254,"lo1":-89.0895,"lo2":-89.0444,"dy":0.0017,"dx":0.0017,"nx":28,"ny":28,"refTime":"2024-10-01T03:00:00:Z","depth":0,"parameterNumber":2,"parameterNumberName":"U-component_of_WINDS"},"data":[0,0,0,0,0,0,0,0,0,0,0,0,0,0,0,0,0,0,0,0,0,0,0,0,0,0,0,0,0,0,0,0,0,0,0,0,0,0,0,0,0,0,0,0,0,0,0,0,0,0,0,0,0,0,0,0,0,0,0.8964,0.8964,0,0.8938,0.8938,0.8938,0.8887,0.8886,0.8885,0.8884,0.886,0.886,0.886,0,0,0,0,0,0,0,0,0,0,0,0,0,0.8973,0.8973,0.8964,0.8964,0.8963,0.8938,0.8938,0.8938,0.8887,0.8886,0.8885,0.8884,0.886,0.886,0.886,0,0,0,0,0,0,0,0,0,0,0,0,0,0.896,0.8973,0.8964,0.8935,0.8932,0.8939,0.8938,0.8938,0.8888,0.8886,0.8885,0.8883,0.886,0.886,0.886,0.8893,0,0,0.8862,0.8862,0,0,0,0,0,0,0,0,0.8961,0.896,0.894,0.8937,0.8934,0.8914,0.8932,0.8923,0.8888,0.8905,0.8884,0.8882,0.8879,0.8878,0.8877,0.8892,0.8891,0.8862,0.8862,0.8862,0.8862,0,0,0,0,0,0,0,0.8962,0.8961,0.8954,0.894,0.8936,0.8925,0.8921,0.893,0.8901,0.8903,0.8899,0.8897,0.8877,0.8876,0.8876,0.8891,0.8862,0.8862,0.8862,0.8863,0.8935,0.8937,0,0,0,0,0,0,0.8967,0.8962,0.8955,0.8953,0.8944,0.8926,0.8922,0.8922,0.8901,0.8896,0.8898,0.8895,0.8876,0.8875,0.8875,0.8914,0.8862,0.8863,0.8863,0.8934,0.8936,0.8937,0,0,0,0,0,0,0.8967,0.8967,0.8956,0.8957,0.8954,0.8927,0.8928,0.8923,0.8921,0.8897,0.8892,0.8902,0.8875,0.8874,0.889,0.8912,0.8863,0.8863,0.8932,0.8934,0.8936,0.8991,0,0,0,0,0,0,0.8968,0.8967,0.8978,0.8957,0.8955,0.897,0.8929,0.8923,0.8922,0.8917,0.8899,0.8895,0.8874,0.8889,0.889,0.8912,0.8863,0.8929,0.8933,0.8936,0.8987,0.8995,0.9002,0,0,0,0,0,0.8968,0.8994,0.8979,0.8979,0.8968,0.8972,0.897,0.8945,0.8924,0.8936,0.8921,0.8895,0.8909,0.8891,0.8892,0.8914,0.8928,0.8932,0.8935,0.8984,0.8994,0.9002,0,0,0,0,0,0,0.9019,0.8991,0.8974,0.8994,0.8986,0.8963,0.8977,0.8956,0.8953,0.8949,0.8918,0.8915,0.8935,0.8926,0.8906,0.8946,0.8915,0.8919,0.8952,0.8961,0.8968,0.8971,0.8864,0,0,0,0,0,0.9032,0.9037,0.9013,0.9033,0.903,0.9004,0.9005,0.8986,0.8977,0.8973,0.8959,0.8951,0.8954,0.8957,0.8958,0.8986,0.8983,0.9002,0.9009,0.9015,0.902,0.9037,0.9046,0.895,0.895,0.895,0,0,0.906,0.9046,0.905,0.9043,0.9034,0.9041,0.9002,0.901,0.9015,0.8974,0.8989,0.8978,0.8968,0.8991,0.9,0.8984,0.9045,0.902,0.9025,0.9026,0.9042,0.9051,0.9059,0.8952,0.8952,0.8951,0,0,0.9115,0.9104,0.912,0.9113,0.9101,0.9084,0.9088,0.9069,0.9061,0.9075,0.9045,0.9052,0.9057,0.9052,0.905,0.9105,0.9083,0.9107,0.9146,0.9163,0.9171,0.9177,0.92,0.9208,0.9111,0.9111,0.9111,0,0.9152,0.916,0.9132,0.9143,0.9142,0.9105,0.9123,0.9117,0.9106,0.9107,0.9089,0.9096,0.9086,0.9109,0.9123,0.9121,0.9127,0.9109,0.9172,0.9178,0.9184,0.9205,0.9213,0.9114,0.9114,0.9113,0.9113,0,0.9207,0.9214,0.9229,0.922,0.922,0.9234,0.921,0.9214,0.9196,0.9182,0.9198,0.9185,0.9184,0.9188,0.917,0.9209,0.92,0.9177,0.9145,0.9197,0.9216,0.9224,0.9118,0.9117,0.9116,0.9116,0,0,0.9293,0.9269,0.9275,0.9272,0.9257,0.9262,0.9276,0.9275,0.928,0.9274,0.9286,0.9293,0.9272,0.927,0.9252,0.9266,0.9315,0.9242,0.9242,0.9258,0.9361,0.938,0.9389,0.93,0.9301,0.9302,0.9362,0,0.9346,0.9368,0.9344,0.9371,0.9378,0.9345,0.9357,0.935,0.9338,0.9344,0.933,0.9336,0.9307,0.9306,0.9319,0.9306,0.9336,0.9301,0.9314,0.9314,0.9319,0.9399,0.9418,0.9475,0.937,0.9371,0.9372,0,0.941,0.9408,0.9437,0.9422,0.9424,0.9436,0.9435,0.9439,0.9432,0.9422,0.9421,0.9399,0.9414,0.9382,0.9403,0.9381,0.9384,0.9379,0.9381,0.9382,0.9347,0.9405,0.9492,0.9502,0.9383,0.9382,0.9381,0,0.9473,0.9477,0.9496,0.9493,0.9476,0.9485,0.9479,0.947,0.9472,0.9471,0.9472,0.9473,0.9475,0.9477,0.9457,0.9435,0.9482,0.9448,0.9477,0.9477,0.9489,0.9489,0.9581,0.9488,0.9488,0.9488,0.9487,0,0.9536,0.9556,0.9524,0.9535,0.9557,0.953,0.9552,0.9542,0.9535,0.9545,0.9516,0.9527,0.9498,0.9507,0.9491,0.9513,0.9513,0.9507,0.9503,0.9511,0.9512,0.9514,0.9511,0.949,0.9489,0.9489,0.9489,0,0.9611,0.959,0.9608,0.959,0.9587,0.9604,0.9589,0.96,0.9587,0.96,0.9602,0.9581,0.959,0.957,0.9575,0.9565,0.9597,0.9585,0.9599,0.9597,0.9628,0.9626,0.9726,0.9739,0.9636,0.9637,0.9638,0,0.9653,0.9667,0.9652,0.9657,0.9652,0.9659,0.9662,0.9636,0.964,0.9634,0.9646,0.9652,0.9656,0.9672,0.9658,0.9663,0.9653,0.9687,0.9653,0.9662,0.9657,0.9657,0.966,0.9695,0.9696,0.9697,0.9698,0,0.9731,0.9721,0.9725,0.9726,0.973,0.973,0.9727,0.9733,0.9707,0.9713,0.9721,0.9724,0.973,0.9738,0.974,0.9735,0.9714,0.9709,0.9716,0.9725,0.9734,0.9733,0.9621,0.9707,0.9706,0.9705,0.9705,0.9705,0.9793,0.9805,0.9797,0.9803,0.9799,0.9798,0.9808,0.9797,0.9803,0.9806,0.9791,0.9803,0.9798,0.9799,0.9796,0.9807,0.9791,0.9801,0.9804,0.9808,0.9814,0.9731,0.9807,0.9806,0.9806,0.9806,0.9806,0,0.9872,0.9865,0.9871,0.987,0.9876,0.9853,0.9851,0.9858,0.9869,0.9865,0.987,0.9881,0.9889,0.9876,0.9882,0.9894,0.9884,0.9897,0.9897,0.9897,0.9826,0.982,0.9904,0.9904,0.9904,0.9904,0.9904,0.9904,0.9914,0.9935,0.9924,0.9943,0.9936,0.9948,0.9949,0.9949,0.9946,0.996,0.9966,0.9958,0.9952,0.9958,0.9965,0.9961,0.9966,0.9982,0.9976,0.9911,0.9901,0.9892,0.9886,0.9983,0.9983,1.0045,1.0046,1.0046]},{"header":{"parameterUnit":"m.s-1","parameterCategory":1,"la1":30.2991,"la2":30.254,"lo1":-89.0895,"lo2":-89.0444,"dy":0.0017,"dx":0.0017,"nx":28,"ny":28,"refTime":"2024-10-01T03:00:00:Z","depth":0,"parameterNumber":3,"parameterNumberName":"V-component_of_WINDS"},"data":[0,0,0,0,0,0,0,0,0,0,0,0,0,0,0,0,0,0,0,0,0,0,0,0,0,0,0,0,0,0,0,0,0,0,0,0,0,0,0,0,0,0,0,0,0,0,0,0,0,0,0,0,0,0,0,0,0,0,-2.8674,-2.8674,0,-2.8615,-2.8615,-2.8614,-2.8539,-2.8538,-2.8536,-2.8535,-2.8473,-2.8473,-2.8472,0,0,0,0,0,0,0,0,0,0,0,0,0,-2.8719,-2.8719,-2.8674,-2.8674,-2.8673,-2.8616,-2.8615,-2.8614,-2.8539,-2.8537,-2.8536,-2.8535,-2.8473,-2.8473,-2.8472,0,0,0,0,0,0,0,0,0,0,0,0,0,-2.8684,-2.8719,-2.8675,-2.8629,-2.8624,-2.8616,-2.8615,-2.8614,-2.8539,-2.8537,-2.8536,-2.8534,-2.8473,-2.8473,-2.8472,-2.8503,0,0,-2.8469,-2.8469,0,0,0,0,0,0,0,0,-2.8686,-2.8683,-2.8636,-2.8632,-2.8626,-2.8583,-2.8608,-2.8577,-2.854,-2.8571,-2.8535,-2.8533,-2.8511,-2.8507,-2.85,-2.85,-2.8498,-2.8469,-2.8469,-2.8469,-2.8468,0,0,0,0,0,0,0,-2.8689,-2.8685,-2.8651,-2.8636,-2.863,-2.861,-2.8603,-2.8601,-2.8552,-2.8568,-2.8563,-2.8557,-2.8508,-2.8501,-2.8498,-2.8497,-2.8469,-2.8469,-2.8468,-2.8468,-2.8518,-2.8519,0,0,0,0,0,0,-2.8698,-2.8687,-2.8653,-2.8649,-2.8653,-2.8611,-2.8603,-2.8598,-2.8552,-2.8543,-2.8559,-2.8554,-2.8503,-2.8499,-2.8495,-2.8527,-2.8469,-2.8468,-2.8467,-2.8516,-2.8518,-2.852,0,0,0,0,0,0,-2.87,-2.8696,-2.8655,-2.8667,-2.866,-2.8612,-2.8608,-2.8598,-2.8591,-2.8544,-2.8535,-2.8561,-2.8501,-2.8496,-2.8501,-2.8524,-2.8467,-2.8467,-2.8514,-2.8516,-2.8519,-2.8593,0,0,0,0,0,0,-2.8701,-2.8697,-2.8709,-2.8668,-2.866,-2.8664,-2.8609,-2.8598,-2.859,-2.8583,-2.8544,-2.8535,-2.85,-2.8503,-2.8501,-2.8522,-2.8466,-2.8511,-2.8515,-2.8518,-2.8588,-2.8598,-2.8606,0,0,0,0,0,-2.8703,-2.8732,-2.871,-2.8706,-2.8674,-2.8665,-2.866,-2.8619,-2.8592,-2.8603,-2.8573,-2.8537,-2.8522,-2.8504,-2.8501,-2.8522,-2.851,-2.8514,-2.8518,-2.8584,-2.8596,-2.8606,0,0,0,0,0,0,-2.8778,-2.8726,-2.8701,-2.8718,-2.8696,-2.8652,-2.8665,-2.8633,-2.8619,-2.8613,-2.8561,-2.8553,-2.8564,-2.8543,-2.8524,-2.8549,-2.851,-2.8514,-2.8562,-2.8573,-2.8581,-2.8585,-2.8465,0,0,0,0,0,-2.8796,-2.8794,-2.8749,-2.8768,-2.8758,-2.8714,-2.8709,-2.8679,-2.8654,-2.8644,-2.8615,-2.8592,-2.8581,-2.8576,-2.8564,-2.8585,-2.8574,-2.8598,-2.8607,-2.8614,-2.8618,-2.8624,-2.8634,-2.8533,-2.8533,-2.8533,0,0,-2.8834,-2.8806,-2.8807,-2.8782,-2.8762,-2.876,-2.8707,-2.8707,-2.8704,-2.8644,-2.8647,-2.8624,-2.8595,-2.8607,-2.8611,-2.8591,-2.8643,-2.8619,-2.8626,-2.8625,-2.863,-2.8639,-2.8648,-2.8536,-2.8535,-2.8535,0,0,-2.8902,-2.8881,-2.8894,-2.8875,-2.8845,-2.8815,-2.8818,-2.8779,-2.8761,-2.8763,-2.8717,-2.8713,-2.8698,-2.8678,-2.8666,-2.8725,-2.869,-2.8723,-2.8769,-2.8776,-2.8784,-2.8791,-2.881,-2.8818,-2.8726,-2.8726,-2.8727,0,-2.8953,-2.8948,-2.8904,-2.8907,-2.8896,-2.8842,-2.8854,-2.8837,-2.8805,-2.8798,-2.8776,-2.8754,-2.8731,-2.8737,-2.8751,-2.8744,-2.8744,-2.8727,-2.8787,-2.8793,-2.8798,-2.8816,-2.8824,-2.873,-2.873,-2.873,-2.8729,0,-2.9011,-2.9009,-2.9023,-2.8993,-2.8984,-2.8991,-2.8947,-2.8943,-2.8914,-2.8886,-2.8887,-2.8857,-2.8838,-2.8837,-2.8809,-2.8838,-2.8826,-2.8796,-2.8756,-2.8813,-2.8828,-2.8835,-2.8736,-2.8735,-2.8734,-2.8733,0,0,-2.9124,-2.907,-2.9075,-2.9061,-2.9023,-2.902,-2.9024,-2.9005,-2.9002,-2.8982,-2.8982,-2.897,-2.8941,-2.8928,-2.8896,-2.8903,-2.8949,-2.8871,-2.8869,-2.8885,-2.8978,-2.9,-2.9009,-2.8926,-2.8927,-2.8928,-2.8979,0,-2.9184,-2.9189,-2.9149,-2.9164,-2.916,-2.9108,-2.9111,-2.9088,-2.9061,-2.9053,-2.9024,-2.9015,-2.8978,-2.897,-2.8974,-2.8943,-2.8966,-2.8938,-2.8924,-2.8924,-2.8932,-2.9017,-2.9041,-2.9091,-2.8985,-2.8986,-2.8987,0,-2.9254,-2.9238,-2.9253,-2.9213,-2.921,-2.9214,-2.9192,-2.9186,-2.9158,-2.9138,-2.9122,-2.9086,-2.9085,-2.9048,-2.9045,-2.9027,-2.9019,-2.9002,-2.9003,-2.8999,-2.8959,-2.9014,-2.9106,-2.9114,-2.8997,-2.8996,-2.8995,0,-2.9333,-2.9315,-2.9321,-2.931,-2.9265,-2.9268,-2.9249,-2.9219,-2.921,-2.9191,-2.9184,-2.9165,-2.9155,-2.914,-2.9098,-2.9076,-2.91,-2.906,-2.9082,-2.9083,-2.9088,-2.9088,-2.9179,-2.9086,-2.9085,-2.9085,-2.9085,0,-2.9404,-2.9414,-2.9355,-2.9359,-2.9369,-2.9322,-2.9333,-2.9309,-2.9282,-2.9279,-2.9233,-2.923,-2.9176,-2.9167,-2.9135,-2.9136,-2.9132,-2.9115,-2.9106,-2.9118,-2.912,-2.9111,-2.9106,-2.9087,-2.9087,-2.9086,-2.9086,0,-2.9493,-2.9455,-2.9458,-2.9414,-2.9404,-2.9413,-2.9375,-2.9375,-2.9346,-2.9342,-2.9338,-2.9292,-2.9279,-2.9236,-2.9212,-2.919,-2.9201,-2.9185,-2.9211,-2.9205,-2.9229,-2.9226,-2.9316,-2.9324,-2.9227,-2.9228,-2.9229,0,-2.954,-2.9547,-2.9505,-2.95,-2.9483,-2.9475,-2.9465,-2.9419,-2.9411,-2.9378,-2.9382,-2.9366,-2.935,-2.9331,-2.9294,-2.9274,-2.9256,-2.9289,-2.9253,-2.9265,-2.9255,-2.9254,-2.9254,-2.9297,-2.9298,-2.9299,-2.93,0,-2.9627,-2.9607,-2.9596,-2.9577,-2.9567,-2.9549,-2.9529,-2.9527,-2.9476,-2.9468,-2.9454,-2.9442,-2.9417,-2.94,-2.9375,-2.9353,-2.9317,-2.9312,-2.9315,-2.9328,-2.9342,-2.9333,-2.9231,-2.931,-2.9309,-2.9308,-2.9307,-2.9307,-2.9696,-2.9699,-2.9669,-2.9657,-2.9637,-2.9619,-2.9617,-2.9587,-2.9576,-2.9552,-2.9526,-2.9515,-2.9484,-2.9446,-2.9427,-2.9416,-2.9397,-2.9403,-2.9404,-2.9406,-2.9411,-2.9345,-2.9412,-2.9411,-2.9411,-2.9411,-2.941,0,-2.9779,-2.9757,-2.9746,-2.972,-2.971,-2.9678,-2.9654,-2.9647,-2.9638,-2.9613,-2.9598,-2.9581,-2.9564,-2.9526,-2.9505,-2.9503,-2.9486,-2.9499,-2.9498,-2.9493,-2.9431,-2.9429,-2.9513,-2.9513,-2.9513,-2.9513,-2.9513,-2.9513,-2.9821,-2.9824,-2.98,-2.9792,-2.977,-2.976,-2.9748,-2.9731,-2.971,-2.9694,-2.968,-2.9655,-2.9624,-2.9599,-2.9581,-2.957,-2.9564,-2.9582,-2.9565,-2.9508,-2.9498,-2.9489,-2.9486,-2.9581,-2.9582,-2.9628,-2.9629,-2.9629]}]]